This demonstration page uses our WeatherBlox Daily Observations layout. Learn more.

Left ArrowRight Arrow

34.80953, -87.64947

Hourly Observations for November 30, 2021

Temp ( °F °C ) Dew Point ( °F °C ) Humidity (%) Winds ( mph kmh ) Pressure ( in mb ) Visibility ( mi km ) Precip ( " mm )
12:53 am 00:53 Clear 36 2.2 28 -2.2 73 73 N N/A 30.13 1020 10 16 N/A
1:53 am 01:53 Clear 34 1.1 29 -1.7 82 82 N N/A 30.14 1021 10 16 N/A
2:53 am 02:53 Clear 34 1.1 29 -1.7 82 82 N N/A 30.14 1021 10 16 N/A
3:53 am 03:53 Clear 38 3.3 29 -1.7 70 70 S 6 9 30.12 1020 10 16 N/A
4:53 am 04:53 Clear 37 2.8 30 -1.1 76 76 S 3 6 30.12 1020 10 16 N/A
5:53 am 05:53 Clear 37 2.8 30 -1.1 76 76 S 5 7 30.13 1020 10 16 N/A
6:53 am 06:53 Sunny 37 2.8 31 -0.6 79 79 SSE 3 6 30.14 1021 10 16 N/A
7:53 am 07:53 Sunny 44 6.7 35 1.7 71 71 N N/A 30.15 1021 10 16 N/A
8:53 am 08:53 Sunny 54 12.2 39 3.9 57 57 W 9 15 30.16 1021 10 16 N/A
9:53 am 09:53 Sunny 58 14.4 40 4.4 51 51 WSW 12 19 30.16 1021 10 16 N/A
10:53 am 10:53 Sunny 61 16.1 41 5 48 48 WNW 8 13 30.15 1021 10 16 N/A
11:53 am 11:53 Sunny 63 17.2 42 5.6 47 47 WNW 5 7 30.13 1020 10 16 N/A
12:53 pm 12:53 Sunny 66 18.9 43 6.1 43 43 W 3 6 30.11 1020 10 16 N/A
1:53 pm 13:53 Sunny 68 20 42 5.6 39 39 N N/A 30.10 1019 10 16 N/A
2:53 pm 14:53 Sunny 69 20.6 43 6.1 39 39 N N/A 30.11 1020 10 16 N/A
3:53 pm 15:53 Sunny 68 20 42 5.6 39 39 NNE 3 6 30.11 1020 10 16 N/A
4:53 pm 16:53 Clear 61 16.1 43 6.1 52 52 N N/A 30.12 1020 10 16 N/A
5:53 pm 17:53 Clear 55 12.8 43 6.1 64 64 N N/A 30.14 1021 10 16 N/A
6:53 pm 18:53 Clear 48 8.9 41 5 77 77 S 5 7 30.15 1021 10 16 N/A
7:53 pm 19:53 Clear 50 10 42 5.6 74 74 N N/A 30.14 1021 10 16 N/A
8:53 pm 20:53 Clear 47 8.3 41 5 80 80 N N/A 30.13 1020 10 16 N/A
9:53 pm 21:53 Clear 45 7.2 40 4.4 83 83 NNE 3 6 30.14 1021 10 16 N/A
10:53 pm 22:53 Clear 44 6.7 40 4.4 85 85 N N/A 30.13 1020 10 16 N/A
11:53 pm 23:53 Clear 41 5 39 3.9 93 93 N N/A 30.13 1020 10 16 N/A

Powered by AerisWeather